SCP
0 0 0 0 0 0 0 0 0 0 0 0 0 0 0 0 0 0 0 0 0 0
0 0 0 0 0 0 0 0 0 0 0 0 0 0 0 0 0 0 0 0 0 0
0 0 0 0 0 0 0 0 0 0 0 0 0 0 0 0 0 0 0 0 0 0
0 0 0 0 0 0 0 0 0 0 0 0 0 0 0 0 0 0 0 0 0 0
0 0 0 0 0 0 0 0 0 0 0 0 0 0 0 0 0 0 0 0 0 0
0 0 0 0 0 0 0 0 0 0 0 0 0 0 0 0 0 0 0 0 0 0
0 0 0 0 0 0 0 0 0 0 0 0 0 0 0 0 0 0 0 0 0 0
0 0 0 0 0 0 0 0 0 0 0 0 0 0 0 0 0 0 0 0 0 0
0 0 0 0 0 0 0 0 0 0 0 0 0 0 0 0 0 0 0 0 0 0
0 0 0 0 0 0 0 0 0 0 0 0 0 0 0 0 0 0 0 0 0 0
0 0 0 0 0 0 0 0 0 0 0 0 0 0 0 0 0 0 0 0 0 0
0 0 0 0 0 0 0 0 0 0 0 0 0 0 0 0 0 0 0 0 0 0
0 0 0 0 0 0 0 0 0 0 0 0 0 0 0 0 0 0 0 0 0 0
0 0 0 0 0 0 0 0 0 0 0 0 0 0 0 0 0 0 0 0 0 0
Wind_Speed_500mb
27 26 26 22 19 20 18 18 16 15 19 23 27 29 29 27 28 28 26 24 22 19
27 26 26 25 24 21 17 11 8 8 15 21 29 32 29 27 26 28 28 27 27 28
33 29 29 28 23 20 13 5 3 10 17 24 30 29 29 31 29 28 27 29 31 31
34 34 33 26 24 19 12 9 10 13 19 28 31 29 30 31 32 31 31 32 33 34
34 34 31 28 23 17 11 12 16 18 23 30 35 34 33 34 34 33 33 36 40 42
38 33 28 24 18 14 12 16 20 23 25 30 38 37 37 36 34 34 39 46 47 51
37 30 23 17 16 12 14 18 22 27 30 35 40 39 38 39 37 37 39 46 49 48
39 27 24 22 19 18 18 20 25 31 36 41 44 45 46 45 41 38 38 42 49 46
40 38 35 26 20 22 25 29 33 36 43 46 51 52 51 47 44 42 44 44 40 33
49 46 39 34 30 26 29 34 38 43 49 53 56 58 51 47 47 44 40 37 28 26
54 47 40 30 25 28 37 42 46 51 54 58 56 54 51 49 40 28 23 25 27 24
61 41 20 22 31 34 39 46 51 52 53 50 46 40 36 35 29 27 25 25 24 27
7 11 27 31 25 35 40 41 41 43 40 35 30 25 30 27 28 28 32 31 27 32
7 17 22 29 27 31 32 34 39 37 36 37 30 28 28 31 34 36 37 35 35 33
Wind_Direction_500mb
169 166 155 147 138 136 133 120 92 52 28 10 359 352 348 343 339 338 331 327 321 323
165 164 158 155 148 143 134 117 83 20 3 358 349 345 342 338 335 331 328 322 317 313
164 166 163 159 158 153 156 188 320 339 347 350 349 344 337 332 334 331 325 319 313 307
172 173 170 172 172 172 196 251 296 315 334 340 344 338 331 328 327 324 320 315 311 312
180 187 181 182 188 199 218 267 291 311 325 334 336 335 329 326 324 322 318 314 312 311
183 192 201 199 208 219 253 284 294 307 319 330 330 330 328 326 320 315 311 310 312 315
190 195 200 207 214 236 276 289 295 306 314 319 322 323 324 322 316 308 305 306 311 319
193 196 215 222 231 254 276 292 302 306 311 315 317 318 321 320 316 309 305 306 310 315
208 204 206 211 231 253 270 286 296 302 308 311 312 313 315 316 312 306 305 308 312 309
203 198 202 214 232 260 280 291 293 297 302 304 305 308 310 309 307 305 305 307 307 306
187 190 197 213 242 263 282 287 293 296 299 302 304 304 308 307 308 307 311 312 306 308
180 177 200 247 252 262 274 286 292 296 299 301 301 302 311 317 317 316 311 301 296 296
224 231 256 264 273 287 287 293 299 306 308 307 302 304 311 317 306 302 298 295 292 295
300 244 259 279 289 294 294 301 307 309 314 320 311 300 295 302 298 295 294 291 295 297
Wind_Speed_850mb
27 26 26 22 19 20 18 18 16 15 19 23 27 29 29 27 28 28 26 24 22 19
27 26 26 25 24 21 17 11 8 8 15 21 29 32 29 27 26 28 28 27 27 28
33 29 29 28 23 20 13 5 3 10 17 24 30 29 29 31 29 28 27 29 31 31
34 34 33 26 24 19 12 9 10 13 19 28 31 29 30 31 32 31 31 32 33 34
34 34 31 28 23 17 11 12 16 18 23 30 35 34 33 34 34 33 33 36 40 42
38 33 28 24 18 14 12 16 20 23 25 30 38 37 37 36 34 34 39 46 47 51
37 30 23 17 16 12 14 18 22 27 30 35 40 39 38 39 37 37 39 46 49 48
39 27 24 22 19 18 18 20 25 31 36 41 44 45 46 45 41 38 38 42 49 46
40 38 35 26 20 22 25 29 33 36 43 46 51 52 51 47 44 42 44 44 40 33
49 46 39 34 30 26 29 34 38 43 49 53 56 58 51 47 47 44 40 37 28 26
54 47 40 30 25 28 37 42 46 51 54 58 56 54 51 49 40 28 23 25 27 24
61 41 20 22 31 34 39 46 51 52 53 50 46 40 36 35 29 27 25 25 24 27
7 11 27 31 25 35 40 41 41 43 40 35 30 25 30 27 28 28 32 31 27 32
7 17 22 29 27 31 32 34 39 37 36 37 30 28 28 31 34 36 37 35 35 33
Wind_Direction_850mb
169 166 155 147 138 136 133 120 92 52 28 10 359 352 348 343 339 338 331 327 321 323
165 164 158 155 148 143 134 117 83 20 3 358 349 345 342 338 335 331 328 322 317 313
164 166 163 159 158 153 156 188 320 339 347 350 349 344 337 332 334 331 325 319 313 307
172 173 170 172 172 172 196 251 296 315 334 340 344 338 331 328 327 324 320 315 311 312
180 187 181 182 188 199 218 267 291 311 325 334 336 335 329 326 324 322 318 314 312 311
183 192 201 199 208 219 253 284 294 307 319 330 330 330 328 326 320 315 311 310 312 315
190 195 200 207 214 236 276 289 295 306 314 319 322 323 324 322 316 308 305 306 311 319
193 196 215 222 231 254 276 292 302 306 311 315 317 318 321 320 316 309 305 306 310 315
208 204 206 211 231 253 270 286 296 302 308 311 312 313 315 316 312 306 305 308 312 309
203 198 202 214 232 260 280 291 293 297 302 304 305 308 310 309 307 305 305 307 307 306
187 190 197 213 242 263 282 287 293 296 299 302 304 304 308 307 308 307 311 312 306 308
180 177 200 247 252 262 274 286 292 296 299 301 301 302 311 317 317 316 311 301 296 296
224 231 256 264 273 287 287 293 299 306 308 307 302 304 311 317 306 302 298 295 292 295
300 244 259 279 289 294 294 301 307 309 314 320 311 300 295 302 298 295 294 291 295 297